Location: Altleiningen
(49.5078°N, 8.0741°E)
Time: 11:00:45
(UTC+00:00)

Cosmos 2341 Rocket - Pass Details

Date: 03 March 2021
Orbit: 968 x 1005 km, 82.9° (Epoch: 13 April)

Event Time Altitude Azimuth Distance (km) Brightness Sun altitude
Rises 18:29:47 0° 172° (S) 3,698 6.9 -13.1°
Reaches altitude 10° 18:32:21 10° 169° (S) 2,748 6.2 -13.5°
Maximum altitude 18:38:28 57° 93° (E) 1,154 4.1 -14.5°
Drops below altitude 10° 18:44:36 10° 16° (NNE) 2,741 6.3 -15.5°
Sets 18:47:09 0° 13° (NNE) 3,689 7.0 -15.9°
